TimeCST,TemperatureF,Dew PointF,Humidity,Sea Level PressureIn,VisibilityMPH,Wind Direction,Wind SpeedMPH,Gust SpeedMPH,PrecipitationIn,Events,Conditions,WindDirDegrees,DateUTC
12:15 AM,33.8,30.2,87,30.35,10.0,SW,4.6,-,N/A,,Clear,230,2012-11-16 06:15:00
12:35 AM,33.8,28.4,81,30.36,10.0,WSW,5.8,-,N/A,,Clear,240,2012-11-16 06:35:00
12:55 AM,32.0,28.4,87,30.36,10.0,WSW,4.6,-,N/A,,Clear,250,2012-11-16 06:55:00
1:15 AM,33.8,28.4,81,30.36,10.0,Calm,Calm,-,N/A,,Clear,0,2012-11-16 07:15:00
1:35 AM,33.8,28.4,81,30.36,10.0,Calm,Calm,-,N/A,,Clear,0,2012-11-16 07:35:00
1:55 AM,33.8,28.4,81,30.37,10.0,Calm,Calm,-,N/A,,Clear,0,2012-11-16 07:55:00
2:15 AM,32.0,28.4,87,30.37,10.0,Calm,Calm,-,N/A,,Clear,0,2012-11-16 08:15:00
2:35 AM,33.8,28.4,81,30.38,10.0,Calm,Calm,-,N/A,,Clear,0,2012-11-16 08:35:00
2:55 AM,32.0,26.6,80,30.38,10.0,WNW,4.6,-,N/A,,Clear,290,2012-11-16 08:55:00
3:15 AM,32.0,28.4,87,30.38,10.0,Calm,Calm,-,N/A,,Clear,0,2012-11-16 09:15:00
3:35 AM,32.0,28.4,87,30.38,10.0,Calm,Calm,-,N/A,,Clear,0,2012-11-16 09:35:00
3:55 AM,32.0,28.4,87,30.39,10.0,Calm,Calm,-,N/A,,Clear,0,2012-11-16 09:55:00
4:15 AM,32.0,28.4,87,30.40,7.0,Calm,Calm,-,N/A,,Clear,0,2012-11-16 10:15:00
4:35 AM,32.0,28.4,87,30.40,7.0,Calm,Calm,-,N/A,,Clear,0,2012-11-16 10:35:00
4:55 AM,30.2,26.6,86,30.40,7.0,Calm,Calm,-,N/A,,Clear,0,2012-11-16 10:55:00
5:15 AM,30.2,28.4,93,30.41,7.0,NNW,3.5,-,N/A,,Clear,340,2012-11-16 11:15:00
5:35 AM,32.0,28.4,87,30.41,7.0,North,5.8,-,N/A,,Clear,360,2012-11-16 11:35:00
5:55 AM,32.0,30.2,93,30.42,7.0,North,6.9,-,N/A,,Mostly Cloudy,10,2012-11-16 11:55:00
7:10 AM,33.8,30.2,87,30.43,7.0,North,5.8,-,N/A,,Clear,350,2012-11-16 13:10:00
7:45 AM,33.8,32.0,93,30.44,10.0,Calm,Calm,-,N/A,,Clear,0,2012-11-16 13:45:00
8:45 AM,39.2,33.8,81,30.45,10.0,North,4.6,-,N/A,,Scattered Clouds,360,2012-11-16 14:45:00
9:24 AM,41.0,35.6,81,30.46,10.0,NNE,5.8,-,N/A,,Mostly Cloudy,30,2012-11-16 15:24:00
10:45 AM,46.4,39.2,76,30.47,10.0,NE,8.1,-,N/A,,Overcast,50,2012-11-16 16:45:00
11:45 AM,46.4,39.2,76,30.46,10.0,NNE,6.9,-,N/A,,Mostly Cloudy,30,2012-11-16 17:45:00
12:45 PM,46.4,37.4,71,30.47,10.0,NE,9.2,-,N/A,,Overcast,40,2012-11-16 18:45:00
1:45 PM,44.6,37.4,76,30.48,10.0,ENE,8.1,-,N/A,,Overcast,60,2012-11-16 19:45:00
2:45 PM,44.6,37.4,76,30.48,10.0,NE,9.2,-,N/A,,Overcast,50,2012-11-16 20:45:00
3:45 PM,42.8,37.4,81,30.48,10.0,ENE,6.9,-,N/A,,Overcast,60,2012-11-16 21:45:00
4:45 PM,42.8,35.6,76,30.48,10.0,ENE,5.8,-,N/A,,Mostly Cloudy,60,2012-11-16 22:45:00
5:45 PM,39.2,35.6,87,30.48,10.0,Calm,Calm,-,N/A,,Clear,0,2012-11-16 23:45:00
6:45 PM,37.4,33.8,87,30.48,10.0,Calm,Calm,-,N/A,,Clear,0,2012-11-17 00:45:00
7:45 PM,35.6,32.0,87,30.47,10.0,Calm,Calm,-,N/A,,Clear,0,2012-11-17 01:45:00
8:15 PM,33.8,32.0,93,30.47,5.0,Calm,Calm,-,N/A,,Clear,0,2012-11-17 02:15:00
8:35 PM,32.0,32.0,100,30.47,7.0,Calm,Calm,-,N/A,,Clear,0,2012-11-17 02:35:00
8:45 PM,33.8,32.0,93,30.47,10.0,Calm,Calm,-,N/A,,Clear,0,2012-11-17 02:45:00
8:55 PM,32.0,32.0,100,30.47,3.0,Calm,Calm,-,N/A,,Clear,0,2012-11-17 02:55:00
9:15 PM,32.0,30.2,93,30.48,7.0,Calm,Calm,-,N/A,,Clear,0,2012-11-17 03:15:00
9:35 PM,32.0,30.2,93,30.48,7.0,Calm,Calm,-,N/A,,Clear,0,2012-11-17 03:35:00
9:55 PM,32.0,30.2,93,30.48,5.0,Calm,Calm,-,N/A,,Clear,0,2012-11-17 03:55:00
10:15 PM,32.0,30.2,93,30.47,5.0,Calm,Calm,-,N/A,,Clear,0,2012-11-17 04:15:00
10:35 PM,30.2,30.2,100,30.48,1.5,Calm,Calm,-,N/A,,Mist,0,2012-11-17 04:35:00
10:55 PM,30.2,30.2,100,30.48,5.0,Calm,Calm,-,N/A,,Clear,0,2012-11-17 04:55:00
11:15 PM,30.2,28.4,93,30.48,5.0,Calm,Calm,-,N/A,,Clear,0,2012-11-17 05:15:00
11:35 PM,30.2,28.4,93,30.48,4.0,Calm,Calm,-,N/A,,Clear,0,2012-11-17 05:35:00
11:55 PM,30.2,28.4,93,30.48,5.0,Calm,Calm,-,N/A,,Clear,0,2012-11-17 05:55:00